TimeHST,TemperatureF,Dew PointF,Humidity,Sea Level PressureIn,VisibilityMPH,Wind Direction,Wind SpeedMPH,Gust SpeedMPH,PrecipitationIn,Events,Conditions,WindDirDegrees,DateUTC
12:53 AM,72.0,63.0,73,30.09,10.0,NNE,8.1,-,N/A,,Scattered Clouds,30,2013-05-12 10:53:00
1:53 AM,72.0,63.0,73,30.08,10.0,North,8.1,-,N/A,,Partly Cloudy,10,2013-05-12 11:53:00
2:53 AM,72.0,63.0,73,30.07,10.0,ENE,5.8,-,N/A,,Scattered Clouds,60,2013-05-12 12:53:00
3:53 AM,71.1,64.0,78,30.06,10.0,NNE,9.2,-,N/A,,Partly Cloudy,30,2013-05-12 13:53:00
4:53 AM,71.1,64.0,78,30.06,10.0,East,6.9,-,N/A,,Scattered Clouds,80,2013-05-12 14:53:00
5:53 AM,71.1,64.0,78,30.07,10.0,NNE,12.7,-,N/A,,Mostly Cloudy,30,2013-05-12 15:53:00
6:53 AM,72.0,64.0,76,30.09,10.0,North,8.1,-,N/A,,Mostly Cloudy,10,2013-05-12 16:53:00
7:53 AM,75.0,64.0,69,30.11,10.0,NNE,12.7,19.6,N/A,,Mostly Cloudy,30,2013-05-12 17:53:00
8:53 AM,75.0,64.0,69,30.12,10.0,NE,9.2,-,N/A,,Mostly Cloudy,40,2013-05-12 18:53:00
9:53 AM,77.0,64.9,66,30.12,10.0,NE,10.4,-,N/A,,Mostly Cloudy,50,2013-05-12 19:53:00
10:53 AM,78.1,64.9,64,30.11,10.0,NNE,13.8,-,N/A,,Mostly Cloudy,30,2013-05-12 20:53:00
11:53 AM,78.1,66.0,66,30.10,10.0,NE,12.7,21.9,0.00,,Mostly Cloudy,40,2013-05-12 21:53:00
12:53 PM,80.1,64.9,60,30.08,10.0,NE,10.4,19.6,N/A,,Mostly Cloudy,40,2013-05-12 22:53:00
1:53 PM,79.0,66.0,64,30.07,10.0,ENE,17.3,26.5,N/A,,Mostly Cloudy,70,2013-05-12 23:53:00
2:53 PM,79.0,66.0,64,30.06,10.0,East,17.3,24.2,N/A,,Mostly Cloudy,80,2013-05-13 00:53:00
3:53 PM,78.1,64.9,64,30.04,10.0,East,13.8,26.5,N/A,,Mostly Cloudy,80,2013-05-13 01:53:00
4:53 PM,80.1,64.0,58,30.04,10.0,NE,11.5,-,N/A,,Scattered Clouds,40,2013-05-13 02:53:00
5:53 PM,78.1,64.0,62,30.03,10.0,ENE,10.4,-,N/A,,Scattered Clouds,60,2013-05-13 03:53:00
6:53 PM,75.9,64.9,69,30.04,10.0,NE,10.4,-,N/A,,Scattered Clouds,40,2013-05-13 04:53:00
7:53 PM,75.0,66.0,73,30.06,10.0,ENE,15.0,21.9,N/A,,Mostly Cloudy,70,2013-05-13 05:53:00
8:53 PM,75.0,66.0,73,30.06,10.0,ENE,10.4,18.4,N/A,,Scattered Clouds,70,2013-05-13 06:53:00
9:53 PM,73.9,66.0,76,30.07,10.0,NE,12.7,-,N/A,,Scattered Clouds,50,2013-05-13 07:53:00
10:53 PM,73.9,66.0,76,30.08,10.0,ENE,10.4,-,N/A,,Scattered Clouds,60,2013-05-13 08:53:00
11:53 PM,73.9,66.9,79,30.07,10.0,ENE,13.8,-,N/A,,Mostly Cloudy,60,2013-05-13 09:53:00